Location: Unspecified
(0.0000°N, 0.0000°E)
Time: 10:16:43
(UTC+00:00)

Courier 1B Rocket - All Passes

Search period start: 23 March 2017 00:00
Search period end: 02 April 2017 00:00
Orbit: 920 x 1202 km, 28.2° (Epoch: 21 March)

Date Brightness Start Highest point End Pass type
(mag) Time Alt. Az. Time Alt. Az. Time Alt. Az.
23 Mar - 01:47:16 10° WNW 01:51:30 18° NNW 01:55:37 10° NNE night (unlit)
23 Mar - 09:26:40 10° NNW 09:32:15 29° NNE 09:38:12 10° E daylight
23 Mar - 11:19:01 10° WNW 11:25:52 80° SSW 11:33:18 10° ESE daylight
23 Mar - 13:14:06 10° WSW 13:19:54 25° SSW 13:26:00 10° SSE daylight
23 Mar - 20:56:34 10° SSW 21:02:44 27° SSE 21:08:36 10° E visible
23 Mar - 22:49:21 10° WSW 22:56:42 85° SSE 23:03:30 10° ENE night (unlit)
24 Mar - 00:44:37 10° W 00:50:19 27° NNW 00:55:42 10° NNE night (unlit)
24 Mar - 08:26:39 10° NNW 08:31:04 19° NNE 08:35:39 10° ENE daylight
24 Mar - 10:18:09 10° NW 10:24:45 69° NNE 10:31:54 10° ESE daylight
24 Mar - 12:12:12 10° W 12:18:31 36° SSW 12:25:15 10° SE daylight
24 Mar - 14:10:16 10° SW 14:13:13 12° SSW 14:16:14 10° S daylight
24 Mar - 19:56:00 10° SSW 20:01:14 19° SSE 20:06:17 10° ESE visible
24 Mar - 21:48:08 10° SW 21:55:31 58° SSE 22:02:23 10° ENE visible
24 Mar - 23:42:29 10° W 23:49:11 41° NNW 23:55:25 10° NE night (unlit)
25 Mar - 01:41:03 10° NW 01:43:11 12° NNW 01:45:19 10° N night (unlit)
25 Mar - 07:27:22 10° N 07:29:47 12° NNE 07:32:13 10° NE daylight
25 Mar - 09:17:33 10° NW 09:23:41 44° NNE 09:30:13 10° E daylight
25 Mar - 11:10:43 10° WNW 11:17:15 52° SSW 11:24:18 10° SE daylight
25 Mar - 13:07:05 10° WSW 13:11:33 17° SSW 13:16:11 10° SSE daylight
25 Mar - 18:55:47 10° S 18:59:34 14° SSE 19:03:18 10° SE visible
25 Mar - 20:47:08 10° SW 20:54:14 40° SSE 21:00:55 10° E visible
25 Mar - 22:40:41 10° WSW 22:48:02 63° NNW 22:54:50 10° NE night (unlit)
26 Mar - 00:37:17 10° WNW 00:41:50 18° NNW 00:46:12 10° NNE night (unlit)
26 Mar - 08:17:13 10° NNW 08:22:35 29° NNE 08:28:14 10° E daylight
26 Mar - 10:09:33 10° WNW 10:16:06 78° SSW 10:23:11 10° SE daylight
26 Mar - 12:04:40 10° WSW 12:10:03 24° SSW 12:15:44 10° SSE daylight
26 Mar - 17:57:02 10° S 17:57:45 10° SSE 17:58:28 10° SSE daylight
26 Mar - 19:46:19 10° SSW 19:52:49 28° SSE 19:59:03 10° E visible
26 Mar - 21:39:11 10° WSW 21:46:51 88° SSE 21:53:58 10° ENE visible
26 Mar - 23:34:34 10° W 23:40:35 28° NNW 23:46:15 10° NNE night (unlit)
27 Mar - 07:17:12 10° NNW 07:21:27 19° NNE 07:25:48 10° ENE daylight
27 Mar - 09:08:42 10° NW 09:15:03 70° NNE 09:21:52 10° ESE daylight
27 Mar - 11:02:47 10° W 11:08:43 33° SSW 11:15:03 10° SE daylight
27 Mar - 13:01:12 10° SW 13:03:22 11° SSW 13:05:34 10° S daylight
27 Mar - 18:45:46 10° SSW 18:51:16 20° SSE 18:56:41 10° ESE visible
27 Mar - 20:37:57 10° SW 20:45:35 61° SSE 20:52:48 10° ENE visible
27 Mar - 22:32:22 10° W 22:39:21 42° NNW 22:45:54 10° NE night (unlit)
28 Mar - 00:30:51 10° NW 00:33:30 12° NNW 00:36:05 10° N night (unlit)
28 Mar - 06:17:52 10° N 06:20:11 12° NNE 06:22:30 10° NE daylight
28 Mar - 08:08:05 10° NW 08:14:03 45° NNE 08:20:18 10° E daylight
28 Mar - 10:01:18 10° WNW 10:07:31 49° SSW 10:14:12 10° SE daylight
28 Mar - 11:57:49 10° WSW 12:01:44 16° SSW 12:05:49 10° SSE daylight
28 Mar - 17:45:34 10° S 17:49:36 15° SSE 17:53:38 10° SE daylight
28 Mar - 19:36:56 10° SW 19:44:14 42° SSE 19:51:16 10° E visible
28 Mar - 21:30:32 10° WSW 21:38:08 63° NNW 21:45:16 10° NE visible
28 Mar - 23:27:11 10° WNW 23:32:04 19° NNW 23:36:46 10° NNE night (unlit)
29 Mar - 07:07:43 10° NNW 07:13:00 29° NNE 07:18:26 10° E daylight
29 Mar - 09:00:08 10° WNW 09:06:27 75° SSW 09:13:11 10° SE daylight
29 Mar - 10:55:21 10° WSW 11:00:18 22° SSW 11:05:30 10° SSE daylight
29 Mar - 16:46:40 10° S 16:47:49 10° SSE 16:48:57 10° SSE daylight
29 Mar - 18:36:10 10° SSW 18:42:48 30° SSE 18:49:19 10° E visible
29 Mar - 20:29:02 10° WSW 20:36:53 89° SSE 20:44:20 10° ENE visible
29 Mar - 22:24:26 10° W 22:30:44 28° NNW 22:36:42 10° NNE visible
30 Mar - 06:07:38 10° NNW 06:11:52 19° NNE 06:16:09 10° ENE daylight
30 Mar - 07:59:15 10° NW 08:05:28 72° NNE 08:11:58 10° ESE daylight
30 Mar - 09:53:26 10° W 09:59:02 31° SSW 10:04:57 10° SSE daylight
30 Mar - 11:53:03 10° SSW 11:53:36 10° SSW 11:54:08 10° SSW daylight
30 Mar - 17:35:40 10° SSW 17:41:16 21° SSE 17:46:52 10° ESE daylight
30 Mar - 19:27:48 10° SW 19:35:34 63° SSE 19:43:04 10° ENE visible
30 Mar - 21:22:13 10° W 21:29:26 42° NNW 21:36:17 10° NE visible
30 Mar - 23:20:35 10° NW 23:23:43 13° NNW 23:26:46 10° N night (unlit)
31 Mar - 05:08:06 10° N 05:10:36 12° NNE 05:13:06 10° NE visible
31 Mar - 06:58:34 10° NW 07:04:29 45° NNE 07:10:32 10° ESE daylight
31 Mar - 08:51:54 10° WNW 08:57:54 46° SSW 09:04:13 10° SE daylight
31 Mar - 10:48:41 10° SW 10:52:01 14° SSW 10:55:28 10° S daylight
31 Mar - 16:35:34 10° S 16:39:38 15° SSE 16:43:43 10° SE daylight
31 Mar - 18:26:50 10° SW 18:34:12 43° SSE 18:41:28 10° E visible
31 Mar - 20:20:24 10° WSW 20:28:08 62° NNW 20:35:33 10° NE visible
31 Mar - 22:17:01 10° WNW 22:22:13 20° NNW 22:27:14 10° NNE visible
01 Apr - 05:58:07 10° NNW 06:03:28 29° NNE 06:08:48 10° E daylight
01 Apr - 07:50:41 10° WNW 07:56:53 72° SSW 08:03:19 10° SE daylight
01 Apr - 09:46:05 10° WSW 09:50:38 20° SSW 09:55:22 10° SSE daylight
01 Apr - 15:37:08 10° SSE 15:37:53 10° SSE 15:38:38 10° SSE daylight
01 Apr - 17:26:08 10° SSW 17:32:46 30° SSE 17:39:26 10° E daylight
01 Apr - 19:18:56 10° WSW 19:26:49 89° NNW 19:34:32 10° ENE visible
01 Apr - 21:14:18 10° W 21:20:47 29° NNW 21:27:03 10° NNE visible
